GW1255 Weather Reports


time (UTC)temp
C
wind
direction
speed
KPH
gust
KPH
rain 1hr
cm
rain 24hr
cm
rain mn
cm
humidity
%
barometer
mb
20260507223818 10 112 1.6 3.2 0.00 0.00 0.00 82 1015.9
20260507222703 10 110 3.2 3.2 0.00 0.00 0.00 81 1016.0
20260507221803 10 115 1.6 1.6 0.00 0.00 0.00 81 1015.9
20260507221118 10 114 3.2 4.8 0.00 0.00 0.00 81 1015.9
20260507220003 10 109 1.6 3.2 0.00 0.00 0.00 81 1016.0
20260507215403 10 116 1.6 3.2 0.00 0.00 0.00 81 1016.0
20260507214503 10 105 1.6 3.2 0.00 0.00 0.00 80 1016.0
20260507213603 10 109 3.2 3.2 0.00 0.00 0.00 80 1015.9
20260507212703 10 110 1.6 3.2 0.00 0.00 0.00 80 1016.0
20260507211803 10 115 1.6 1.6 0.00 0.00 0.00 80 1015.8
20260507210903 10 114 1.6 3.2 0.00 0.00 0.00 80 1015.8
20260507210217 10 111 1.6 3.2 0.00 0.00 0.00 80 1015.7
20260507205403 10 110 1.6 3.2 0.00 0.00 0.00 80 1015.7
20260507204503 10 113 3.2 4.8 0.00 0.00 0.00 80 1015.7
20260507203603 10 118 3.2 4.8 0.00 0.00 0.00 79 1015.7
20260507202703 10 112 3.2 4.8 0.00 0.00 0.00 79 1015.7
20260507201803 11 112 3.2 3.2 0.00 0.00 0.00 79 1015.6
20260507200903 11 109 1.6 3.2 0.00 0.00 0.00 79 1015.5
20260507200216 11 105 1.6 3.2 0.00 0.00 0.00 79 1015.5
20260507195618 11 105 1.6 3.2 0.00 0.00 0.00 78 1015.5
20260507194503 11 114 3.2 4.8 0.00 0.00 0.00 78 1015.3
20260507193603 11 128 3.2 4.8 0.00 0.00 0.00 77 1015.3
20260507192703 11 122 3.2 4.8 0.00 0.00 0.00 76 1015.3
20260507191803 11 131 3.2 4.8 0.00 0.00 0.00 76 1015.3
20260507190903 11 137 3.2 4.8 0.00 0.00 0.00 76 1015.2
20260507190005 11 137 4.8 6.4 0.00 0.00 0.00 75 1015.2
20260507185403 11 143 4.8 6.4 0.00 0.00 0.00 75 1015.2
20260507184504 12 169 3.2 6.4 0.00 0.00 0.00 75 1015.2
20260507183603 12 138 4.8 6.4 0.00 0.00 0.00 75 1015.3
20260507182918 12 156 4.8 6.4 0.00 0.00 0.00 74 1015.3
20260507181803 12 167 3.2 4.8 0.00 0.00 0.00 73 1015.2
20260507181118 12 140 4.8 8.0 0.00 0.00 0.00 72 1015.1
20260507180003 12 157 6.4 9.7 0.00 0.00 0.00 70 1015.1
20260507175403 12 144 8.0 12.9 0.00 0.00 0.00 69 1015.1
20260507174503 12 137 8.0 12.9 0.00 0.00 0.00 68 1015.0
20260507173603 13 148 8.0 12.9 0.00 0.00 0.00 68 1015.1
20260507172703 13 130 6.4 9.7 0.00 0.00 0.00 68 1015.0
20260507171803 13 141 6.4 9.7 0.00 0.00 0.00 68 1015.1
20260507170903 12 135 4.8 9.7 0.00 0.00 0.00 69 1015.1
20260507170003 12 116 6.4 11.3 0.00 0.00 0.00 69 1015.1
20260507165403 12 111 6.4 9.7 0.00 0.00 0.00 68 1015.1
20260507164719 12 114 8.0 12.9 0.00 0.00 0.00 68 1015.2
20260507163603 12 121 11.3 14.5 0.00 0.00 0.00 67 1015.2
20260507162917 12 127 9.7 16.1 0.00 0.00 0.00 71 1015.1
20260507162018 12 134 8.0 11.3 0.00 0.00 0.00 71 1015.2
20260507161118 12 124 11.3 16.1 0.00 0.00 0.00 72 1015.2
20260507160003 12 132 9.7 12.9 0.00 0.00 0.00 71 1015.1
20260507155403 12 147 9.7 14.5 0.00 0.00 0.00 70 1015.2
20260507154503 12 142 9.7 14.5 0.00 0.00 0.00 70 1015.2
20260507153603 13 134 8.0 11.3 0.00 0.00 0.00 70 1015.1
20260507152916 13 130 6.4 9.7 0.00 0.00 0.00 70 1015.1
20260507151803 13 121 6.4 9.7 0.00 0.00 0.00 70 1015.2
20260507150903 12 137 3.2 4.8 0.00 0.00 0.00 69 1015.1
20260507150004 13 137 6.4 9.7 0.00 0.00 0.00 68 1015.2
20260507145403 13 143 6.4 11.3 0.00 0.00 0.00 68 1015.2
20260507144503 13 136 6.4 8.0 0.00 0.00 0.00 68 1015.2
20260507143603 12 140 6.4 9.7 0.00 0.00 0.00 68 1015.3
20260507142703 12 142 4.8 9.7 0.00 0.00 0.00 69 1015.3
20260507141803 12 248 3.2 4.8 0.00 0.00 0.00 73 1015.5
20260507141117 11 255 3.2 4.8 0.00 0.00 0.00 73 1015.5
20260507140003 11 244 4.8 8.0 0.00 0.00 0.00 72 1015.5
20260507135403 12 237 6.4 11.3 0.00 0.00 0.00 72 1015.6
20260507134503 12 186 6.4 12.9 0.00 0.00 0.00 69 1015.7
20260507133603 12 177 8.0 14.5 0.00 0.00 0.00 67 1015.6
20260507132703 12 120 4.8 11.3 0.00 0.00 0.00 68 1015.6
20260507132017 12 108 9.7 16.1 0.00 0.00 0.00 67 1015.6
20260507130903 13 123 4.8 9.7 0.00 0.00 0.00 66 1015.6
20260507130218 12 128 8.0 11.3 0.00 0.00 0.00 66 1015.6
20260507125403 13 153 6.4 11.3 0.00 0.00 0.00 66 1015.6
20260507124503 13 123 8.0 12.9 0.00 0.00 0.00 65 1015.6
20260507123603 13 144 4.8 8.0 0.00 0.00 0.00 65 1015.6
20260507122705 13 138 8.0 12.9 0.00 0.00 0.00 66 1015.6
20260507122017 13 142 9.7 12.9 0.00 0.00 0.00 66 1015.6
20260507120903 12 114 9.7 17.7 0.00 0.00 0.00 66 1015.7
20260507120004 12 133 6.4 12.9 0.00 0.00 0.00 67 1015.8
20260507115403 12 132 8.0 14.5 0.00 0.00 0.00 67 1015.7
20260507114504 12 111 11.3 16.1 0.00 0.00 0.00 67 1015.8
20260507113603 13 112 11.3 17.7 0.00 0.00 0.00 66 1015.9
20260507112703 13 109 11.3 20.9 0.00 0.00 0.00 69 1015.8
20260507111803 13 181 9.7 16.1 0.00 0.00 0.00 66 1015.8
20260507111118 13 181 9.7 16.1 0.00 0.00 0.00 65 1015.9
20260507110003 12 154 11.3 14.5 0.00 0.00 0.00 65 1016.0
20260507105403 12 132 11.3 14.5 0.00 0.00 0.00 64 1016.0
20260507104503 12 116 12.9 17.7 0.00 0.00 0.00 68 1016.1
20260507103817 12 126 11.3 17.7 0.00 0.00 0.00 69 1016.1
20260507102703 12 134 9.7 17.7 0.00 0.00 0.00 70 1016.2
20260507101803 11 111 8.0 11.3 0.00 0.00 0.00 73 1016.1
20260507100903 11 108 8.0 11.3 0.00 0.00 0.00 75 1016.2
20260507100004 11 110 9.7 16.1 0.00 0.00 0.00 78 1016.1
20260507095403 10 119 9.7 16.1 0.00 0.00 0.00 78 1016.2
20260507094503 10 111 11.3 16.1 0.00 0.00 0.00 80 1016.1
20260507093817 9 114 11.3 16.1 0.00 0.00 0.00 80 1016.2
20260507092918 9 113 11.3 17.7 0.00 0.00 0.00 81 1016.1
20260507091803 8 117 8.0 12.9 0.00 0.00 0.00 82 1016.1
20260507090903 8 118 6.4 11.3 0.00 0.00 0.00 83 1016.1
20260507090004 8 114 8.0 12.9 0.00 0.00 0.00 84 1016.2
20260507085403 7 100 9.7 12.9 0.00 0.00 0.00 84 1016.2
20260507084503 7 96 9.7 12.9 0.00 0.00 0.00 85 1016.2
20260507083816 7 98 8.0 11.3 0.00 0.00 0.00 85 1016.3
20260507082703 7 95 6.4 8.0 0.00 0.00 0.00 86 1016.4
20260507081803 7 109 6.4 9.7 0.00 0.00 0.00 85 1016.4
20260507080903 7 120 6.4 9.7 0.00 0.00 0.00 86 1016.3
20260507080004 7 109 8.0 11.3 0.00 0.00 0.00 86 1016.1
20260507075403 6 108 8.0 11.3 0.00 0.00 0.00 86 1016.1
20260507074717 6 112 8.0 9.7 0.00 0.00 0.00 86 1016.2
20260507073603 6 105 8.0 9.7 0.00 0.00 0.00 87 1016.0
20260507072703 6 105 6.4 9.7 0.00 0.00 0.00 87 1016.1
20260507071803 6 109 6.4 9.7 0.00 0.00 0.00 87 1016.1
20260507070903 6 109 6.4 11.3 0.00 0.00 0.00 88 1016.0
20260507070005 6 110 8.0 11.3 0.00 0.00 0.00 88 1015.9
20260507065403 6 111 6.4 6.4 0.00 0.00 0.00 88 1015.8
20260507064503 6 111 8.0 11.3 0.00 0.00 0.00 88 1015.8
20260507063603 6 111 9.7 11.3 0.00 0.00 0.00 88 1015.8
20260507062703 6 105 8.0 11.3 0.00 0.00 0.00 88 1015.7
20260507061803 6 107 9.7 11.3 0.00 0.00 0.00 88 1015.7
20260507060903 6 104 8.0 11.3 0.00 0.00 0.00 88 1015.7
20260507060003 6 109 8.0 11.3 0.00 0.00 0.00 88 1015.7
20260507055617 6 105 8.0 11.3 0.00 0.00 0.00 88 1015.7
20260507054503 6 104 8.0 11.3 0.00 0.00 0.00 88 1015.6
20260507053817 6 103 8.0 9.7 0.00 0.00 0.00 88 1015.6
20260507052703 6 96 6.4 11.3 0.00 0.00 0.00 88 1015.5
20260507051803 6 104 6.4 9.7 0.00 0.00 0.00 88 1015.6
20260507050903 6 106 6.4 6.4 0.00 0.00 0.00 88 1015.5
20260507050003 6 115 4.8 6.4 0.00 0.00 0.00 88 1015.6
20260507045403 6 113 4.8 4.8 0.00 0.00 0.00 88 1015.5
20260507044503 6 112 4.8 6.4 0.00 0.00 0.00 88 1015.5
20260507043817 6 110 4.8 6.4 0.00 0.00 0.00 88 1015.4
20260507042703 6 108 4.8 9.7 0.00 0.00 0.00 87 1015.4
20260507041803 6 106 6.4 9.7 0.00 0.00 0.00 87 1015.3
20260507040903 6 106 4.8 6.4 0.00 0.00 0.00 87 1015.5
20260507040003 6 102 4.8 6.4 0.00 0.00 0.00 87 1015.4
20260507035403 6 105 4.8 6.4 0.00 0.00 0.00 87 1015.4
20260507034503 6 108 3.2 4.8 0.00 0.00 0.00 87 1015.5
20260507033603 6 112 3.2 4.8 0.00 0.00 0.00 86 1015.5
20260507032703 6 82 0.0 1.6 0.00 0.00 0.00 86 1015.5
20260507031803 6 96 1.6 4.8 0.00 0.00 0.00 86 1015.5
20260507030903 6 96 3.2 4.8 0.00 0.00 0.00 86 1015.6
20260507030003 6 90 1.6 4.8 0.00 0.00 0.00 86 1015.5
20260507025403 6 88 1.6 3.2 0.00 0.00 0.00 86 1015.6
20260507024503 6 92 3.2 4.8 0.00 0.00 0.00 86 1015.6
20260507023603 6 108 4.8 6.4 0.00 0.00 0.00 86 1015.5
20260507022703 6 104 4.8 8.0 0.00 0.00 0.00 86 1015.6
20260507021803 6 106 4.8 8.0 0.00 0.00 0.00 86 1015.5
20260507021116 6 106 4.8 8.0 0.00 0.00 0.00 86 1015.6
20260507020003 6 106 6.4 8.0 0.00 0.00 0.00 86 1015.5
20260507015403 6 108 4.8 8.0 0.00 0.00 0.00 86 1015.5
20260507014504 6 94 4.8 6.4 0.00 0.00 0.00 85 1015.5
20260507013603 6 105 6.4 9.7 0.00 0.00 0.00 85 1015.5
20260507012704 6 110 4.8 8.0 0.00 0.00 0.00 85 1015.5
20260507011803 6 107 8.0 9.7 0.00 0.00 0.00 85 1015.6
20260507010904 7 103 8.0 9.7 0.00 0.00 0.00 84 1015.6
20260507010218 7 102 4.8 8.0 0.00 0.00 0.00 84 1015.6
20260507005403 7 103 6.4 8.0 0.00 0.00 0.00 84 1015.6
20260507004503 7 106 8.0 11.3 0.00 0.00 0.00 84 1015.5
20260507003603 7 107 8.0 12.9 0.00 0.00 0.00 84 1015.5
20260507002704 7 104 9.7 14.5 0.00 0.00 0.00 83 1015.5
20260507001804 7 96 9.7 14.5 0.00 0.00 0.00 83 1015.6
20260507000904 7 106 9.7 16.1 0.00 0.00 0.00 83 1015.8
20260507000004 7 107 8.0 12.9 0.00 0.00 0.00 82 1015.7
20260506235403 7 104 8.0 9.7 0.00 0.00 0.00 82 1015.7
20260506234503 7 102 8.0 9.7 0.00 0.00 0.00 82 1015.6
20260506233603 7 105 11.3 14.5 0.00 0.00 0.00 81 1015.6
20260506232703 7 100 11.3 16.1 0.00 0.00 0.00 80 1015.6
20260506231803 7 103 14.5 20.9 0.00 0.00 0.00 80 1015.6
20260506230903 7 106 12.9 17.7 0.00 0.00 0.00 79 1015.6
20260506230005 7 107 12.9 17.7 0.00 0.00 0.00 78 1015.6
20260506225403 8 104 9.7 14.5 0.00 0.00 0.00 78 1015.6
20260506224503 8 95 9.7 12.9 0.00 0.00 0.00 77 1015.6